Hourly Data Report for September 21, 2017

All times are specified in Local Standard Time (LST). Add 1 hour to adjust for Daylight Saving Time where and when it is observed.

NAPPAN AUTO
NOVA SCOTIA

45°45'34.400" N
64°14'29.200" W
19.80 m
8203702
71311
XNP

Download Data

Hourly Data (September 2017)
Hourly Data Report for September 21, 2017
Temp Definition
°C
Dew Point Temp Definition
°C
Rel Hum Definition
%
Wind Dir Definition
10's deg

Wind Spd Definition
km/h
Visibility Definition
km
Stn Press Definition
kPa
Hmdx Definition


Wind Chill Definition


Weather Definition


TIME
00:00 16.7 15.5 93 2 10   101.58     LegendNANA
01:00 14.3 13.6 95 1 8   101.61     LegendNANA
02:00 13.5 12.5 93 3 10   101.57     LegendNANA
03:00 12.5 11.8 95 3 4   101.60     LegendNANA
04:00 11.8 11.4 98 2 4   101.63     LegendNANA
05:00 10.9 10.6 98 3 4   101.65     LegendNANA
06:00 10.3 10.0 98 5 2   101.68     LegendNANA
07:00 11.1 10.8 98 4 5   101.70     LegendNANA
08:00 14.0 12.9 93 2 5   101.75     LegendNANA
09:00 16.3 13.7 85 4 16   101.81     LegendNANA
10:00 17.6 13.1 75 3 18   101.85     LegendNANA
11:00 19.4 12.1 63 4 20   101.87     LegendNANA
12:00 20.1 10.1 52 5 18   101.86     LegendNANA
13:00 19.8 8.3 47 4 22   101.88     LegendNANA
14:00 19.7 6.5 42 5 19   101.88     LegendNANA
15:00 19.5 5.9 41 5 18   101.91     LegendNANA
16:00 18.6 7.1 47 5 17   101.95     LegendNANA
17:00 17.3 6.1 48 6 15   102.00     LegendNANA
18:00 15.3 7.4 59 5 12   102.01     LegendNANA
19:00 13.0 7.9 71 5 9   102.00     LegendNANA
20:00 11.6 7.6 76 4 10   102.02     LegendNANA
21:00 9.8 7.2 84 5 5   102.06     LegendNANA
22:00 9.2 7.2 87 6 4   102.09     LegendNANA
23:00 6.0 5.3 95 0 1   102.10     LegendNANA

Notes on Data Quality.

Legend

  • E = Estimated
  • M = Missing
  • NA = Not Available
  • ‡ = Partner data that is not subject to review by the National Climate Archives
Date modified: